Date,TemperatureHighF,TemperatureAvgF,TemperatureLowF,DewpointHighF,DewpointAvgF,DewpointLowF,HumidityHigh,HumidityAvg,HumidityLow,PressureMaxIn,PressureMinIn,WindSpeedMaxMPH,WindSpeedAvgMPH,GustSpeedMaxMPH,PrecipitationSumIn
2013-1-1,65.6,56.3,48.5,56.0,51.4,45.0,94,83,70,30.18,29.95,3,0,7,0.00
2013-1-2,63.6,55.6,48.0,59.0,52.6,46.0,97,89,80,30.18,29.89,8,2,12,0.01
2013-1-3,47.6,44.2,38.3,45.0,42.4,37.0,97,93,88,30.28,30.12,5,1,8,0.11
2013-1-4,53.5,41.2,31.0,41.0,34.3,31.0,98,80,44,30.35,30.23,4,0,9,0.01
2013-1-5,54.4,39.7,28.6,39.0,32.6,28.0,97,79,38,30.42,30.30,5,1,8,0.00
2013-1-6,54.7,48.4,41.2,47.0,44.2,39.0,96,86,68,30.29,30.09,3,0,6,0.02
2013-1-7,56.2,47.3,38.9,46.0,39.3,34.0,96,76,44,30.41,30.17,9,2,14,0.00
2013-1-8,65.4,52.5,42.7,55.0,46.1,36.0,97,79,66,30.42,30.33,7,2,10,0.00
2013-1-9,72.5,60.0,48.0,62.0,56.2,47.0,98,88,66,30.40,30.34,7,1,9,0.00
2013-1-10,68.6,60.2,54.5,58.0,53.1,42.0,98,79,54,30.47,30.38,9,2,14,0.01
2013-1-11,75.6,63.3,54.8,67.0,60.0,48.0,98,89,72,30.38,30.18,5,1,11,0.23
2013-1-12,79.2,67.1,59.5,66.0,62.6,58.0,99,87,60,30.20,30.11,8,1,10,0.01
2013-1-13,75.0,63.8,56.3,65.0,60.2,56.0,99,89,67,30.19,30.09,6,1,10,0.00
2013-1-14,78.5,65.4,56.4,67.0,61.5,56.0,99,88,62,30.20,30.11,8,1,10,0.02
2013-1-15,77.2,65.2,57.6,66.0,62.1,57.0,99,90,67,30.18,30.04,4,1,7,0.00
2013-1-16,79.4,68.9,60.7,67.0,63.6,60.0,99,84,56,30.06,29.95,9,2,14,0.01
2013-1-17,76.5,63.5,45.1,68.0,58.8,42.0,98,85,65,30.03,29.73,12,3,31,0.19
2013-1-18,53.0,43.8,36.6,41.0,33.5,26.0,93,70,37,30.52,30.04,16,4,23,0.00
2013-1-19,60.5,45.0,34.0,46.0,37.7,31.0,96,77,52,30.50,30.22,4,1,6,0.00
2013-1-20,66.9,50.6,40.5,48.0,39.2,30.0,98,72,26,30.22,30.02,8,1,14,0.00
2013-1-21,66.0,51.1,35.5,49.0,37.3,32.0,96,65,29,30.09,29.92,7,1,12,0.00
2013-1-22,53.3,43.0,30.8,36.0,27.6,20.0,86,58,32,30.27,30.01,10,2,12,0.00
2013-1-23,47.2,36.0,28.0,36.0,20.4,8.0,93,58,22,30.40,30.16,9,2,11,0.00
2013-1-24,57.8,44.3,29.4,45.0,30.5,11.0,85,60,41,30.52,30.05,13,5,18,0.00
2013-1-25,40.9,33.8,25.4,34.0,21.2,9.0,78,61,45,30.51,30.16,8,3,12,0.00
2013-1-26,54.5,42.2,33.7,37.0,32.4,28.0,85,69,51,30.36,30.11,7,2,11,0.00
2013-1-27,49.4,38.7,29.7,36.0,31.3,26.0,89,76,54,30.55,30.37,10,2,11,0.00
2013-1-28,62.2,46.6,36.0,55.0,42.2,31.0,97,85,66,30.50,30.29,5,1,7,0.00
2013-1-29,75.4,58.0,42.4,65.0,54.4,42.0,98,89,65,30.29,30.13,7,1,10,0.00
2013-1-30,72.9,68.0,60.7,67.0,64.7,60.0,98,89,82,30.12,29.60,13,4,22,0.01
2013-1-31,70.8,50.6,44.0,67.0,35.8,24.0,95,60,32,30.14,29.60,13,4,29,0.24
2013-2-1,54.9,44.4,32.5,34.0,23.4,7.0,69,46,18,30.38,30.10,18,3,24,0.00
2013-2-2,50.3,38.9,27.6,42.0,27.7,13.0,96,65,46,30.41,30.08,7,2,10,0.00
2013-2-3,58.3,46.7,37.1,40.0,35.2,32.0,94,67,39,30.07,29.89,14,3,21,0.00
2013-2-4,49.4,40.5,28.8,37.0,32.3,27.0,95,74,48,30.16,30.03,4,0,6,0.00
2013-2-5,67.3,52.2,36.5,49.0,41.3,35.0,96,71,35,30.07,29.94,6,1,15,0.00
2013-2-6,70.2,55.3,45.2,51.0,45.9,41.0,96,75,35,30.23,30.01,6,1,10,0.00
2013-2-7,61.0,51.6,43.5,55.0,49.6,43.0,97,93,71,30.21,29.73,12,3,19,1.00
2013-2-8,62.7,55.2,48.5,55.0,49.3,46.0,97,82,61,30.04,29.67,12,4,17,0.10
2013-2-9,59.3,46.7,35.3,47.0,32.5,23.0,95,63,28,30.36,30.05,9,3,21,0.00
2013-2-10,59.7,47.3,33.0,55.0,41.9,32.0,96,82,57,30.45,30.23,8,2,12,0.00
2013-2-11,66.4,61.3,54.4,64.0,59.8,53.0,97,94,88,30.27,30.02,6,2,14,0.69
2013-2-12,63.4,57.4,49.8,59.0,54.7,48.0,98,91,64,30.12,29.92,4,1,13,0.79
2013-2-13,66.2,54.7,48.4,62.0,51.8,47.0,98,90,69,29.94,29.68,11,2,18,0.23
2013-2-14,54.1,48.1,40.4,50.0,41.0,37.0,96,78,57,30.09,29.84,8,1,11,0.00
2013-2-15,59.9,45.9,34.3,45.0,39.3,34.0,98,81,49,30.11,29.98,7,1,10,0.00
2013-2-16,53.6,40.9,33.1,44.0,38.1,32.0,98,90,67,29.98,29.80,14,3,24,0.16
2013-2-17,40.7,33.6,26.8,32.0,24.4,19.0,94,72,42,30.31,29.99,19,4,26,0.05
2013-2-18,51.2,35.1,24.3,33.0,27.6,23.0,95,77,36,30.45,30.30,4,1,8,0.01
2013-2-19,62.4,49.6,33.0,56.0,46.3,31.0,96,89,63,30.30,29.96,5,2,14,0.09
2013-2-20,55.9,46.9,34.9,48.0,36.3,24.0,97,70,31,30.16,30.02,7,1,10,0.01
2013-2-21,60.4,45.1,36.0,43.0,33.8,24.0,96,68,33,30.22,30.10,7,1,9,0.00
2013-2-22,51.7,47.3,42.7,50.0,43.8,31.0,97,88,59,30.27,30.08,12,3,16,0.16
2013-2-23,49.2,45.7,42.9,49.0,45.1,42.0,98,98,97,30.07,29.77,6,2,12,0.58
2013-2-24,66.0,52.2,45.1,51.0,47.2,43.0,98,86,44,30.02,29.77,10,2,14,0.01
2013-2-25,46.0,44.1,41.8,44.0,38.5,36.0,98,81,69,30.16,29.98,11,3,17,0.01
2013-2-26,70.4,58.3,42.3,67.0,56.8,41.0,99,94,84,30.04,29.57,14,4,21,1.36
2013-2-27,59.1,52.9,47.8,56.0,44.0,39.0,95,73,55,29.86,29.68,13,3,17,0.00
2013-2-28,57.9,50.2,41.0,43.0,37.9,33.0,89,65,40,29.87,29.75,13,3,23,0.00
2013-3-1,54.4,45.7,38.1,38.0,33.9,32.0,90,65,45,29.94,29.85,8,2,13,0.00
2013-3-2,49.1,41.3,34.4,38.0,34.8,33.0,97,79,55,29.93,29.83,9,1,12,0.00
2013-3-3,49.2,41.2,35.8,36.0,28.2,24.0,94,62,42,29.99,29.87,13,3,20,0.00
2013-3-4,53.2,40.4,30.8,31.0,24.2,19.0,83,56,27,30.16,29.99,11,3,18,0.00
2013-3-5,65.6,53.1,36.0,56.0,43.0,32.0,95,71,40,30.13,29.66,14,3,19,0.02
2013-3-6,62.5,49.4,42.1,55.0,32.4,25.0,81,54,38,30.05,29.62,20,7,32,0.01
2013-3-7,57.6,46.5,35.7,36.0,32.4,30.0,80,60,39,30.21,30.06,9,4,18,0.00
2013-3-8,57.8,46.5,35.4,34.0,30.1,28.0,76,55,32,30.28,30.16,15,3,20,0.00
2013-3-9,63.9,48.4,35.6,42.0,35.5,30.0,93,64,37,30.32,30.23,11,2,13,0.00
2013-3-10,62.2,49.0,36.1,46.0,35.7,25.0,97,67,25,30.32,30.23,9,1,11,0.00
2013-3-11,71.7,57.0,43.2,59.0,51.3,41.0,97,82,55,30.24,29.94,7,1,14,0.00
2013-3-12,70.8,63.8,57.7,64.0,60.3,50.0,97,88,76,29.95,29.78,7,1,12,0.30
2013-3-13,63.8,55.1,44.1,50.0,36.3,26.0,80,53,24,30.12,29.92,11,3,19,0.00
2013-3-14,54.4,44.9,35.9,33.0,24.9,20.0,81,47,30,30.29,30.11,13,4,17,0.00
2013-3-15,61.0,48.2,31.3,45.0,35.5,25.0,96,66,31,30.23,30.02,9,2,11,0.00
2013-3-16,79.6,66.0,54.6,52.0,47.3,42.0,72,53,27,30.01,29.80,10,4,24,0.00
2013-3-17,79.2,66.4,54.0,60.0,52.4,47.0,80,62,39,30.04,29.91,10,2,17,0.00
2013-3-18,62.2,55.7,50.3,55.0,51.9,48.0,97,87,69,30.12,29.87,7,2,12,0.00
2013-3-19,71.2,58.5,49.6,56.0,50.7,43.0,98,79,39,30.01,29.80,12,3,20,0.47
2013-3-20,60.2,50.2,40.2,45.0,31.4,15.0,92,53,18,30.12,29.83,7,1,12,0.00
2013-3-21,54.7,46.0,37.4,38.0,24.7,14.0,95,49,24,29.96,29.75,12,4,22,0.00
2013-3-22,52.0,42.5,29.8,38.0,25.2,17.0,74,52,28,30.11,29.96,6,2,12,0.00
2013-3-23,50.3,45.1,39.2,47.0,42.3,37.0,95,89,72,30.08,29.91,4,1,10,0.35
2013-3-24,60.2,50.6,44.5,59.0,49.3,43.0,98,95,91,29.91,29.44,13,4,19,1.93
2013-3-25,53.6,47.5,42.9,44.0,35.2,26.0,96,66,40,29.91,29.56,17,5,30,0.00
2013-3-26,50.8,43.2,33.5,32.0,28.3,26.0,79,57,40,30.15,29.92,10,3,20,0.00
2013-3-27,56.8,44.7,33.2,33.0,30.1,25.0,91,61,34,30.25,30.16,11,2,18,0.00
2013-3-28,58.3,45.2,32.0,34.0,28.9,25.0,90,57,28,30.29,30.18,20,3,21,0.00
2013-3-29,59.5,48.1,32.8,41.0,34.1,27.0,92,62,29,30.36,30.23,9,1,14,0.00
2013-3-30,61.9,54.4,47.5,51.0,46.3,41.0,95,75,53,30.26,30.11,7,1,12,0.00
2013-3-31,74.2,63.1,50.1,59.0,55.9,49.0,95,79,56,30.11,29.88,12,3,20,0.44
2013-4-1,74.6,64.0,57.1,63.0,59.2,55.0,97,85,58,29.93,29.84,9,2,13,0.39
2013-4-2,62.4,56.0,48.9,55.0,43.7,35.0,95,66,41,30.16,29.92,8,2,14,0.00
2013-4-3,63.1,54.1,48.7,50.0,43.9,33.0,97,72,37,30.26,30.08,9,2,14,0.00
2013-4-4,59.9,53.0,49.0,59.0,49.2,42.0,97,87,69,30.27,29.82,13,4,20,1.20
2013-4-5,59.2,49.5,43.2,50.0,46.1,42.0,97,89,71,30.04,29.86,11,3,16,0.00
2013-4-6,66.1,53.9,41.6,53.0,45.6,41.0,98,76,45,30.27,30.04,7,2,18,0.00
2013-4-7,70.6,58.7,42.1,59.0,51.8,41.0,98,80,52,30.28,30.16,5,1,10,0.00
2013-4-8,77.5,63.7,51.1,64.0,57.6,51.0,98,83,56,30.21,30.13,8,1,13,0.00
2013-4-9,80.6,66.8,56.0,67.0,60.8,55.0,98,83,50,30.24,30.13,8,1,11,0.00
2013-4-10,80.1,69.3,58.8,67.0,62.8,58.0,98,81,56,30.17,30.03,12,2,15,0.00
2013-4-11,81.0,69.6,59.5,72.0,66.1,59.0,98,89,72,30.03,29.86,11,2,14,0.00
2013-4-12,81.7,71.6,67.0,73.0,69.2,66.0,98,92,73,29.87,29.70,6,2,15,1.09
2013-4-13,75.6,64.3,54.5,68.0,54.9,47.0,97,75,37,30.03,29.79,8,2,13,0.00
2013-4-14,73.0,62.0,50.4,63.0,57.4,50.0,99,86,57,30.11,29.99,6,1,10,0.02
2013-4-15,72.7,66.5,61.8,64.0,62.4,60.0,96,87,71,30.17,29.89,7,2,15,0.67
2013-4-16,76.8,67.1,58.3,66.0,62.4,58.0,98,85,65,30.26,30.17,7,1,10,0.00
2013-4-17,79.3,67.8,57.2,67.0,62.5,57.0,98,84,59,30.24,30.14,7,1,9,0.00
2013-4-18,77.2,69.0,60.7,69.0,65.1,60.0,98,88,68,30.18,30.04,9,1,11,0.00
2013-4-19,78.8,72.6,67.0,73.0,69.7,66.0,98,91,80,30.04,29.87,11,3,17,0.76
2013-4-20,67.6,56.8,45.9,67.0,50.9,43.0,98,82,54,30.26,29.90,7,2,13,0.18
2013-4-21,67.3,55.7,43.7,51.0,45.5,41.0,97,71,49,30.38,30.26,10,4,19,0.00
2013-4-22,67.2,55.9,45.8,52.0,46.1,36.0,86,70,57,30.36,30.15,13,5,18,0.00
2013-4-23,68.5,57.3,51.2,57.0,52.1,49.0,97,83,66,30.22,30.14,12,3,15,0.00
2013-4-24,74.8,63.0,49.1,64.0,57.3,49.0,98,83,66,30.20,30.06,9,2,14,0.00
2013-4-25,78.1,66.1,59.3,67.0,62.6,58.0,97,89,65,30.25,30.08,5,1,10,0.48
2013-4-26,71.4,60.8,50.7,58.0,50.9,40.0,97,74,33,30.40,30.24,9,2,14,0.01
2013-4-27,73.3,62.2,52.4,59.0,51.5,42.0,96,72,35,30.36,30.25,12,2,13,0.00
2013-4-28,72.8,66.6,59.5,64.0,61.2,56.0,95,83,70,30.25,30.07,8,2,15,0.00
2013-4-29,71.6,65.6,62.2,68.0,63.7,62.0,98,93,79,30.08,29.97,5,1,9,2.02
2013-4-30,72.8,65.9,61.7,67.0,63.3,61.0,99,91,72,30.10,29.97,8,2,11,0.23
2013-5-1,74.0,64.8,58.5,64.0,60.4,57.0,96,86,65,30.20,30.08,11,4,14,0.00
2013-5-2,72.2,65.9,62.5,64.0,61.9,58.0,96,87,72,30.22,30.16,15,4,16,0.00
2013-5-3,68.4,62.2,56.3,62.0,55.6,44.0,92,80,57,30.15,30.07,17,6,30,0.00
2013-5-4,64.9,58.9,54.3,61.0,54.9,48.0,95,86,76,30.08,29.96,13,4,19,0.12
2013-5-5,72.5,63.9,57.8,65.0,60.3,56.0,95,88,70,29.98,29.84,14,4,16,0.23
2013-5-6,75.4,66.4,56.5,65.0,60.6,53.0,98,83,45,29.91,29.82,10,2,17,0.68
2013-5-7,69.1,60.7,53.2,60.0,55.5,51.0,96,84,59,29.97,29.89,5,1,10,0.22
2013-5-8,78.6,66.1,53.5,64.0,58.2,53.0,98,78,49,30.03,29.95,6,1,13,0.01
2013-5-9,82.7,71.0,60.3,68.0,62.6,58.0,94,77,49,30.09,29.99,6,1,13,0.00
2013-5-10,85.9,73.0,59.9,68.0,63.8,59.0,96,75,51,30.09,30.00,12,1,14,0.00
2013-5-11,83.8,75.4,68.9,71.0,66.8,61.0,93,76,50,30.02,29.85,7,2,10,0.00
2013-5-12,81.1,73.3,61.8,68.0,60.2,48.0,91,67,36,29.98,29.82,11,2,14,0.00
2013-5-13,71.7,62.9,51.8,53.0,44.2,39.0,85,53,31,30.14,29.98,16,3,17,0.00
2013-5-14,71.1,61.2,48.7,53.0,45.4,38.0,94,60,37,30.27,30.14,11,2,16,0.00
2013-5-15,86.8,70.8,55.5,67.0,58.9,54.0,96,69,43,30.16,29.98,8,2,14,0.00
2013-5-16,87.0,75.3,65.2,69.0,64.5,60.0,87,70,48,30.04,29.96,6,1,13,0.00
2013-5-17,87.6,75.6,63.5,70.0,65.7,62.0,95,73,48,30.11,30.02,7,1,10,0.00
2013-5-18,83.7,73.2,63.9,71.0,67.2,63.0,97,82,50,30.16,30.08,6,1,12,0.00
2013-5-19,80.6,73.8,69.7,72.0,69.2,66.0,96,86,63,30.15,30.07,7,1,13,0.00
2013-5-20,75.1,71.8,70.4,73.0,70.0,68.0,97,94,85,30.13,30.05,6,1,9,1.33
2013-5-21,79.1,73.0,69.3,73.0,70.5,69.0,98,92,78,30.09,29.99,7,1,9,0.30
2013-5-22,82.4,74.8,66.0,73.0,70.4,66.0,98,87,71,30.04,29.94,10,2,18,0.00
2013-5-23,83.7,72.8,66.7,74.0,69.7,66.0,99,91,64,29.97,29.85,7,1,12,1.86
2013-5-24,80.3,71.2,58.7,68.0,60.3,46.0,99,71,40,30.17,29.81,14,3,22,0.01
2013-5-25,76.5,63.1,50.1,56.0,46.6,39.0,91,60,27,30.30,30.16,10,2,14,0.00
2013-5-26,77.7,66.5,56.2,61.0,55.8,51.0,95,72,43,30.27,30.16,7,1,9,0.00
2013-5-27,77.8,69.5,59.5,66.0,62.7,58.0,97,80,63,30.26,30.18,7,2,13,0.00
2013-5-28,81.9,72.6,62.5,70.0,65.9,62.0,98,81,58,30.27,30.19,7,2,12,0.00
2013-5-29,81.6,73.4,63.7,71.0,66.6,63.0,98,80,59,30.27,30.17,9,1,12,0.00
2013-5-30,83.9,74.7,63.6,73.0,68.6,63.0,98,82,63,30.27,30.19,6,1,11,0.00
2013-5-31,83.1,76.0,67.5,74.0,70.9,67.0,98,85,69,30.23,30.14,7,1,13,0.00
2013-6-1,83.3,75.7,66.3,73.0,69.5,66.0,98,82,63,30.17,30.08,8,2,14,0.00
2013-6-2,84.1,76.0,67.9,75.0,71.7,67.0,98,87,71,30.12,29.96,8,2,19,0.00
2013-6-3,80.6,74.4,68.3,77.0,72.5,67.0,98,94,86,29.97,29.86,7,1,12,1.64
2013-6-4,84.1,75.4,68.9,75.0,71.9,69.0,99,89,66,30.05,29.91,6,1,10,0.00
2013-6-5,80.8,76.3,74.4,75.0,73.0,72.0,96,89,81,30.07,29.98,9,3,15,0.00
2013-6-6,80.1,75.5,71.7,76.0,73.5,71.0,98,93,85,29.99,29.77,7,1,10,2.71
2013-6-7,82.4,76.5,72.0,75.0,73.5,71.0,98,90,73,29.86,29.54,11,3,27,1.03
2013-6-8,88.8,80.2,74.3,78.0,74.4,72.0,96,83,61,30.10,29.85,7,2,13,0.00
2013-6-9,85.9,78.9,73.0,79.0,75.0,72.0,98,88,74,30.15,30.08,7,1,11,0.00
2013-6-10,85.6,79.0,69.8,79.0,75.0,69.0,96,88,72,30.13,29.96,9,2,16,0.26
2013-6-11,88.0,76.8,69.7,76.0,72.7,69.0,98,88,65,30.02,29.91,7,1,14,0.44
2013-6-12,91.1,81.9,70.9,81.0,76.5,71.0,99,84,64,29.98,29.89,6,1,11,0.01
2013-6-13,95.1,86.2,76.9,80.0,77.1,74.0,97,76,53,29.91,29.68,8,2,16,0.00
2013-6-14,84.3,78.1,71.9,76.0,64.4,59.0,91,65,43,30.00,29.70,12,3,18,0.00
2013-6-15,83.3,73.8,61.7,68.0,60.9,52.0,95,67,35,30.14,30.00,7,1,12,0.00
2013-6-16,84.1,75.2,64.4,69.0,66.0,62.0,96,74,55,30.17,30.06,8,1,12,0.00
2013-6-17,87.1,77.2,68.2,76.0,71.9,66.0,97,84,64,30.09,29.97,6,1,14,0.05
2013-6-18,89.9,79.5,72.2,78.0,73.8,69.0,97,84,64,30.02,29.82,9,1,15,0.16
2013-6-19,80.8,76.7,71.9,76.0,72.8,70.0,96,88,75,30.07,29.86,6,2,10,0.81
2013-6-20,83.4,74.8,68.0,71.0,68.1,63.0,97,81,58,30.17,30.06,10,3,15,0.17
2013-6-21,82.9,72.6,63.9,75.0,67.8,60.0,97,85,69,30.19,30.12,7,2,14,0.79
2013-6-22,84.5,75.6,70.2,75.0,72.5,70.0,98,90,72,30.16,30.08,6,1,10,0.04
2013-6-23,84.2,77.4,71.0,78.0,74.3,70.0,98,90,75,30.20,30.14,12,1,12,0.32
2013-6-24,85.5,79.2,75.7,78.0,75.7,74.0,96,89,73,30.22,30.14,4,1,8,0.05
2013-6-25,88.6,80.6,74.5,79.0,75.7,74.0,98,86,63,30.16,30.04,7,1,13,0.00
2013-6-26,88.2,79.5,73.5,77.0,74.3,72.0,97,85,66,30.07,29.95,6,1,11,0.01
2013-6-27,91.9,80.4,73.2,79.0,75.2,69.0,97,85,62,30.01,29.77,7,2,17,0.00
2013-6-28,92.4,83.1,77.2,81.0,77.2,74.0,93,83,60,29.82,29.65,6,2,16,0.00
2013-6-29,87.2,78.7,73.3,78.0,74.6,71.0,97,87,70,29.78,29.67,6,2,19,0.43
2013-6-30,84.1,76.9,71.7,79.0,74.9,71.0,98,93,82,29.89,29.74,6,1,14,1.60
2013-7-1,81.7,76.0,72.2,78.0,74.3,72.0,98,95,83,30.04,29.84,8,2,20,4.35
2013-7-2,81.5,76.9,72.5,78.0,75.0,71.0,97,94,85,30.17,30.03,7,1,10,0.50
2013-7-3,86.1,80.0,74.7,80.0,76.6,74.0,98,90,79,30.24,30.14,14,2,17,0.23
2013-7-4,85.5,81.0,77.6,78.0,75.9,74.0,94,85,71,30.25,30.20,12,2,17,0.00
2013-7-5,86.0,80.8,76.6,79.0,76.4,74.0,94,86,74,30.26,30.18,7,2,16,0.00
2013-7-6,85.8,79.1,72.2,77.0,74.2,71.0,98,85,69,30.24,30.15,7,1,14,0.01
2013-7-7,87.5,78.9,72.4,77.0,73.6,71.0,98,85,68,30.20,30.10,9,1,13,0.04
2013-7-8,87.1,78.8,70.9,77.0,73.4,70.0,98,84,67,30.19,30.12,6,1,11,0.00
2013-7-9,88.1,80.0,71.9,78.0,74.3,71.0,98,83,69,30.19,30.10,9,1,12,0.00
2013-7-10,88.0,80.2,72.7,78.0,74.7,72.0,97,84,65,30.13,29.98,8,1,12,0.00
2013-7-11,90.0,80.2,73.3,78.0,74.5,72.0,97,84,57,30.01,29.89,9,1,13,0.00
2013-7-12,78.9,75.8,73.0,75.0,73.6,71.0,97,93,87,29.97,29.88,3,0,6,0.72
2013-7-13,85.0,78.0,72.8,78.0,74.6,72.0,97,89,75,30.11,29.95,8,2,15,0.06
2013-7-14,85.4,80.9,75.0,78.0,75.7,72.0,91,84,76,30.24,30.11,11,3,15,0.02
2013-7-15,86.5,81.2,76.4,79.0,76.4,75.0,96,86,73,30.27,30.21,9,2,12,0.00
2013-7-16,90.7,81.3,74.0,78.0,74.7,73.0,98,82,57,30.28,30.19,5,1,10,0.00
2013-7-17,93.3,78.2,70.4,80.0,74.4,69.0,98,89,57,30.21,30.10,5,1,20,1.08
2013-7-18,89.5,79.6,72.4,79.0,75.3,72.0,99,87,68,30.15,30.07,7,1,10,0.01
2013-7-19,87.6,79.9,72.4,79.0,75.2,72.0,98,86,68,30.13,30.02,7,1,12,0.13
2013-7-20,86.6,79.7,75.2,77.0,75.0,73.0,94,86,68,30.08,29.99,8,2,11,0.01
2013-7-21,85.5,78.1,74.1,78.0,74.3,72.0,94,88,75,30.04,29.94,6,1,11,0.00
2013-7-22,89.4,80.5,74.4,78.0,75.1,73.0,96,84,65,29.99,29.88,11,1,13,0.00
2013-7-23,89.1,80.6,74.8,77.0,74.4,73.0,93,82,65,29.91,29.77,9,2,13,0.00
2013-7-24,87.0,80.0,74.4,78.0,75.6,73.0,97,87,67,29.82,29.75,3,1,8,0.00
2013-7-25,90.2,80.0,71.6,78.0,73.6,70.0,98,82,57,29.99,29.77,7,1,9,0.00
2013-7-26,84.9,78.2,71.0,76.0,73.1,69.0,93,84,70,30.07,29.98,8,2,10,0.00
2013-7-27,87.3,78.7,70.7,76.0,73.1,70.0,98,83,66,30.05,29.93,8,1,10,0.00
2013-7-28,87.6,79.8,73.2,80.0,75.8,72.0,97,88,71,30.02,29.91,7,1,9,0.01
2013-7-29,90.0,78.5,71.6,80.0,75.1,70.0,99,90,64,30.14,30.01,9,1,12,1.03
2013-7-30,86.4,78.7,72.8,78.0,75.2,73.0,99,89,73,30.18,30.11,5,1,9,0.01
2013-7-31,85.3,78.5,74.3,78.0,75.7,74.0,98,91,77,30.13,30.01,4,1,11,0.24
2013-8-1,82.8,76.2,72.7,78.0,74.5,72.0,99,94,79,30.01,29.92,6,0,8,1.18
2013-8-2,86.8,78.7,73.1,80.0,76.2,73.0,99,92,74,30.05,29.93,5,1,9,0.98
2013-8-3,87.3,80.4,74.7,80.0,77.0,74.0,99,90,75,30.04,29.92,6,1,9,0.10
2013-8-4,90.8,81.0,72.7,78.0,74.3,71.0,98,81,61,30.01,29.88,11,2,12,0.01
2013-8-5,85.0,76.8,69.7,73.0,67.6,64.0,96,75,51,30.06,29.98,7,1,11,0.00
2013-8-6,85.4,77.4,69.2,72.0,69.2,65.0,94,76,59,30.06,29.97,5,1,11,0.00
2013-8-7,84.9,76.7,68.8,75.0,72.0,68.0,97,86,63,30.08,30.01,6,1,11,0.03
2013-8-8,87.5,77.6,71.4,80.0,74.7,71.0,98,91,70,30.07,30.01,6,1,10,1.26
2013-8-9,89.6,81.4,74.8,80.0,76.8,74.0,99,86,69,30.11,30.02,7,1,10,0.07
2013-8-10,92.6,82.2,73.2,81.0,76.7,73.0,99,84,57,30.12,30.04,6,1,10,0.00
2013-8-11,94.8,84.0,75.9,79.0,76.6,73.0,97,80,51,30.13,30.02,6,1,10,0.00
2013-8-12,94.2,84.8,77.0,81.0,77.7,75.0,94,80,57,30.07,29.95,4,1,13,0.00
2013-8-13,93.7,84.8,77.9,80.0,77.6,75.0,93,80,57,29.97,29.82,4,1,14,0.00
2013-8-14,82.7,77.1,66.7,78.0,74.1,65.0,96,90,76,30.02,29.82,9,2,11,0.09
2013-8-15,70.4,66.0,63.0,69.0,64.7,62.0,97,96,91,30.10,30.01,9,3,16,0.83
2013-8-16,75.7,69.9,65.3,72.0,68.2,64.0,97,94,87,30.10,30.04,10,3,14,0.77
2013-8-17,78.8,72.9,68.8,74.0,70.8,68.0,97,93,85,30.15,30.02,6,2,9,0.00
2013-8-18,87.8,77.6,70.3,78.0,73.6,70.0,98,88,64,30.20,30.11,4,0,9,0.00
2013-8-19,87.4,78.2,73.8,80.0,75.8,73.0,99,92,72,30.15,30.06,5,1,8,0.14
2013-8-20,84.5,77.4,73.6,79.0,76.1,73.0,99,96,81,30.17,30.07,3,0,4,1.28
2013-8-21,88.3,79.8,72.7,79.0,75.9,72.0,99,89,68,30.21,30.11,3,0,9,0.01
2013-8-22,89.4,78.4,72.6,79.0,75.1,72.0,99,90,65,30.15,30.02,4,0,12,0.06
2013-8-23,90.9,80.0,72.6,79.0,75.2,72.0,98,86,64,30.04,29.93,8,1,11,0.01
2013-8-24,82.7,76.2,71.7,75.0,70.1,67.0,96,82,61,30.23,30.01,11,2,13,0.00
2013-8-25,82.4,73.5,64.5,68.0,64.9,62.0,93,75,57,30.31,30.22,10,2,15,0.00
2013-8-26,83.9,73.7,64.5,67.0,64.6,62.0,95,75,53,30.27,30.12,7,2,11,0.00
2013-8-27,84.8,74.1,63.9,72.0,66.9,63.0,99,80,57,30.14,30.00,4,1,9,0.00
2013-8-28,90.9,79.3,69.4,75.0,71.3,66.0,94,78,55,30.03,29.92,6,1,12,0.00
2013-8-29,92.9,81.3,73.1,79.0,74.2,71.0,93,80,58,29.94,29.85,6,2,12,0.00
2013-8-30,85.0,78.1,70.9,76.0,73.5,70.0,96,86,70,30.01,29.93,8,2,12,0.00
2013-8-31,87.9,78.8,71.6,78.0,74.7,71.0,99,88,69,29.97,29.89,8,1,8,0.00
2013-9-1,92.2,81.5,74.4,80.0,76.4,74.0,99,86,58,29.95,29.83,6,1,11,0.00
2013-9-2,92.1,83.0,77.4,80.0,76.6,74.0,96,82,60,29.92,29.81,8,2,12,0.00
2013-9-3,91.8,78.5,71.7,77.0,73.5,70.0,97,85,62,29.94,29.82,7,1,20,0.44
2013-9-4,88.7,79.6,71.1,79.0,75.4,71.0,98,88,68,30.07,29.93,8,1,11,0.01
2013-9-5,90.5,81.2,73.9,79.0,75.2,72.0,98,84,55,30.08,30.00,4,1,7,0.00
2013-9-6,88.7,77.6,68.8,73.0,69.5,66.0,97,78,50,30.09,30.01,9,1,12,0.00
2013-9-7,84.1,74.9,67.0,71.0,68.2,66.0,96,81,58,30.09,29.98,7,2,9,0.00
2013-9-8,89.0,75.6,64.7,75.0,69.9,64.0,99,84,56,30.00,29.89,5,1,10,0.00
2013-9-9,87.1,77.4,68.1,75.0,71.4,68.0,98,83,63,30.13,29.97,5,1,11,0.00
2013-9-10,88.5,77.9,70.3,74.0,71.2,68.0,97,81,53,30.22,30.13,11,1,13,0.00
2013-9-11,86.8,77.0,70.1,75.0,71.0,68.0,98,83,57,30.20,30.09,9,1,11,0.00
2013-9-12,89.4,77.2,68.5,74.0,70.6,67.0,99,82,51,30.09,29.86,5,1,10,0.00
2013-9-13,89.1,78.6,72.1,77.0,72.3,68.0,95,82,56,29.86,29.73,8,1,11,0.00
2013-9-14,82.8,74.6,68.1,70.0,66.0,63.0,88,75,61,30.07,29.80,10,3,16,0.00
2013-9-15,82.3,75.0,66.3,75.0,70.2,65.0,95,85,76,30.18,30.07,10,2,14,0.00
2013-9-16,87.5,78.2,71.7,77.0,73.1,71.0,98,85,65,30.12,30.01,6,1,9,0.00
2013-9-17,79.6,73.1,67.3,72.0,63.4,60.0,92,72,52,30.23,30.08,12,4,22,0.00
2013-9-18,77.5,67.0,57.6,62.0,58.5,54.0,92,75,54,30.24,30.14,10,3,12,0.00
2013-9-19,81.7,70.0,60.2,64.0,61.1,58.0,94,75,49,30.17,30.08,7,2,11,0.00
2013-9-20,82.6,71.8,61.5,68.0,64.8,61.0,98,80,57,30.09,29.95,5,0,9,0.00
2013-9-21,84.3,75.3,67.0,74.0,70.4,66.0,97,85,66,29.95,29.72,5,1,10,0.00
2013-9-22,77.6,72.4,66.9,73.0,68.7,65.0,97,88,76,29.86,29.66,8,2,13,0.16
2013-9-23,79.3,68.3,59.5,65.0,60.3,58.0,97,78,50,30.05,29.86,10,2,10,0.00
2013-9-24,77.0,66.0,56.6,61.0,57.5,54.0,94,76,47,30.08,29.94,9,1,12,0.00
2013-9-25,75.8,67.5,58.6,66.0,62.2,58.0,96,83,72,29.94,29.82,12,2,12,0.18
2013-9-26,78.4,68.8,62.7,65.0,61.8,57.0,96,80,51,29.96,29.82,8,2,12,0.41
2013-9-27,79.0,68.1,59.2,63.0,59.6,57.0,95,76,54,30.12,29.96,12,4,16,0.00
2013-9-28,77.2,67.5,60.9,63.0,59.9,56.0,89,78,61,30.16,30.08,10,3,14,0.00
2013-9-29,76.7,65.8,56.9,60.0,57.6,55.0,96,77,50,30.11,30.00,9,2,12,0.00
2013-9-30,77.2,65.1,54.6,63.0,58.8,54.0,97,82,53,30.07,29.98,6,1,9,0.00
2013-10-1,81.0,66.7,54.6,64.0,58.9,54.0,98,79,47,30.13,30.03,6,1,10,0.00
2013-10-2,84.6,69.4,57.6,66.0,62.1,57.0,98,80,51,30.14,30.06,8,1,8,0.00
2013-10-3,82.2,71.3,60.1,72.0,66.4,60.0,98,86,55,30.15,30.09,4,1,9,0.00
2013-10-4,84.1,73.3,65.5,73.0,68.7,65.0,99,87,60,30.14,30.06,6,1,11,0.00
2013-10-5,85.4,73.1,64.0,72.0,68.1,64.0,99,86,54,30.12,30.04,6,1,9,0.00
2013-10-6,83.0,74.2,67.1,76.0,71.2,67.0,99,90,76,30.06,29.94,9,1,10,0.02
2013-10-7,79.6,74.8,72.4,75.0,73.1,72.0,98,94,86,29.94,29.81,6,1,7,0.29
2013-10-8,72.4,63.2,57.2,72.0,62.0,56.0,98,95,92,30.09,29.87,15,5,20,0.59
2013-10-9,77.5,63.5,57.3,65.0,58.8,56.0,95,85,64,30.07,30.01,12,5,21,0.01
2013-10-10,69.2,63.4,59.3,61.0,58.5,56.0,92,84,73,30.02,29.95,11,4,18,0.00
2013-10-11,77.6,68.5,62.4,67.0,63.4,61.0,95,84,65,29.99,29.89,5,1,13,0.00
2013-10-12,80.7,70.3,63.8,67.0,64.2,62.0,96,82,60,30.06,29.93,8,1,12,0.00
2013-10-13,75.0,68.0,61.3,68.0,65.1,61.0,98,90,77,30.12,30.04,10,2,12,0.00
2013-10-14,76.6,70.1,66.8,68.0,66.0,63.0,93,87,73,30.13,30.05,11,5,19,0.00
2013-10-15,71.7,66.0,60.8,65.0,61.8,59.0,93,86,76,30.12,30.01,10,3,12,0.00
2013-10-16,73.2,67.1,61.2,66.0,64.0,60.0,97,90,75,30.04,29.95,6,1,7,0.00
2013-10-17,79.8,68.4,58.5,70.0,64.0,58.0,99,87,65,29.99,29.88,10,1,11,0.00
2013-10-18,77.5,69.5,64.5,72.0,67.7,64.0,99,94,83,29.99,29.90,5,1,7,0.02
2013-10-19,79.0,70.8,65.5,74.0,68.7,65.0,98,93,79,29.95,29.85,4,0,8,0.62
2013-10-20,68.7,63.4,55.9,65.0,57.2,53.0,95,81,62,30.09,29.90,10,2,15,0.03
2013-10-21,69.6,61.0,53.9,60.0,55.7,52.0,93,83,67,30.13,30.01,6,1,9,0.00
2013-10-22,68.3,62.2,58.7,63.0,59.5,57.0,98,91,74,30.02,29.85,3,0,4,0.14
2013-10-23,71.7,62.4,54.3,62.0,53.4,40.0,98,76,39,30.01,29.73,12,2,23,0.13
2013-10-24,62.7,51.4,41.7,46.0,40.5,36.0,95,69,43,30.19,30.02,6,1,10,0.00
2013-10-25,60.2,49.9,39.6,47.0,40.5,35.0,98,73,41,30.36,30.14,14,2,17,0.00
2013-10-26,64.1,48.5,35.5,47.0,40.1,34.0,95,76,45,30.35,30.14,6,1,9,0.00
2013-10-27,71.0,54.6,41.4,54.0,47.3,40.0,97,79,48,30.15,30.07,5,1,9,0.00
2013-10-28,75.1,60.3,50.6,60.0,55.7,50.0,98,86,58,30.27,30.14,3,0,5,0.00
2013-10-29,75.6,61.4,51.0,62.0,57.0,51.0,99,87,56,30.33,30.24,5,0,7,0.00
2013-10-30,76.4,62.2,52.4,64.0,57.8,52.0,99,87,53,30.32,30.19,5,0,7,0.00
2013-10-31,78.1,66.3,54.2,69.0,62.5,54.0,99,88,67,30.21,29.99,5,1,17,0.00
2013-11-1,80.1,74.4,70.0,72.0,69.5,67.0,96,85,69,29.99,29.75,9,2,14,0.13
2013-11-2,71.0,64.4,53.0,70.0,61.0,51.0,98,89,63,29.95,29.71,6,1,14,0.73
2013-11-3,64.8,54.5,46.2,52.0,44.9,42.0,94,72,43,30.32,29.94,12,2,15,0.00
2013-11-4,63.4,52.3,42.4,45.0,41.3,39.0,87,68,47,30.47,30.32,11,3,18,0.00
2013-11-5,64.8,53.5,42.2,60.0,50.1,39.0,95,88,78,30.45,30.34,9,3,12,0.01
2013-11-6,76.1,65.1,56.2,66.0,60.2,52.0,97,85,69,30.34,30.10,7,2,10,0.12
2013-11-7,73.2,66.5,58.0,67.0,63.9,50.0,98,91,72,30.09,29.91,9,1,14,0.36
2013-11-8,59.4,50.3,39.2,47.0,36.6,32.0,94,62,37,30.31,30.05,14,3,18,0.00
2013-11-9,65.3,51.0,37.7,51.0,43.6,34.0,93,77,51,30.37,30.22,6,1,6,0.00
2013-11-10,68.3,56.6,48.4,53.0,49.6,45.0,97,80,45,30.25,30.13,5,1,8,0.00
2013-11-11,64.0,52.3,43.8,48.0,41.2,35.0,97,69,43,30.32,30.18,12,2,14,0.00
2013-11-12,68.9,53.5,37.4,50.0,42.4,29.0,98,70,43,30.37,30.01,26,3,26,0.00
2013-11-13,47.2,37.8,28.4,32.0,26.0,22.0,90,65,38,30.52,30.36,17,4,22,0.00
2013-11-14,60.5,41.6,27.1,40.0,31.5,25.0,95,73,31,30.52,30.36,5,1,6,0.00
2013-11-15,63.3,54.2,38.1,60.0,51.0,37.0,95,89,75,30.35,30.18,7,1,9,0.00
2013-11-16,74.4,63.8,57.0,66.0,60.3,56.0,98,89,61,30.23,30.16,5,1,8,0.00
2013-11-17,75.0,64.2,53.4,70.0,62.9,53.0,98,95,83,30.20,29.99,5,1,7,0.04
2013-11-18,81.1,72.1,63.0,73.0,67.1,48.0,98,85,58,29.99,29.79,8,2,13,0.01
2013-11-19,62.1,54.6,47.0,48.0,35.4,32.0,66,50,35,30.25,29.92,10,3,18,0.00
2013-11-20,58.8,50.2,42.4,47.0,40.9,36.0,82,71,60,30.36,30.23,10,4,16,0.00
2013-11-21,70.7,58.4,48.8,62.0,53.6,45.0,96,84,71,30.40,30.33,10,2,11,0.00
2013-11-22,74.3,64.0,58.7,66.0,61.6,58.0,98,92,70,30.34,30.13,3,0,6,0.01
2013-11-23,65.8,61.5,54.9,65.0,59.5,43.0,98,93,64,30.13,30.02,6,1,13,0.15
2013-11-24,54.1,40.6,29.1,41.0,20.0,11.0,61,45,27,30.55,30.12,18,5,22,0.00
2013-11-25,48.5,36.7,27.4,34.0,19.7,10.0,80,52,30,30.59,30.30,12,2,13,0.00
2013-11-26,70.8,58.6,40.2,70.0,57.1,35.0,99,94,82,30.30,29.63,14,3,23,2.47
2013-11-27,68.4,53.6,35.6,68.0,51.5,30.0,98,92,76,30.21,29.47,11,4,22,0.09
2013-11-28,46.2,35.8,30.2,31.0,25.7,20.0,95,69,43,30.50,30.22,13,2,16,0.00
2013-11-29,56.0,41.5,29.3,35.0,31.7,28.0,96,71,39,30.56,30.48,9,2,12,0.00
2013-11-30,56.8,45.4,33.7,44.0,37.1,29.0,85,73,60,30.56,30.33,10,3,14,0.00
2013-12-1,59.7,51.5,45.6,52.0,47.2,42.0,96,85,75,30.32,30.02,6,1,8,0.00
2013-12-2,61.5,52.2,44.2,52.0,48.6,43.0,97,88,64,30.02,29.82,6,1,11,0.00
2013-12-3,63.7,52.7,41.6,56.0,48.9,41.0,98,88,62,30.02,29.89,4,0,7,0.06
2013-12-4,73.3,62.1,56.3,66.0,60.0,56.0,99,93,74,30.11,29.99,5,0,9,0.15
2013-12-5,77.0,65.7,54.5,67.0,62.2,54.0,99,89,68,30.17,30.08,5,1,8,0.00
2013-12-6,80.0,71.7,66.1,70.0,67.2,65.0,97,86,63,30.16,30.06,8,3,16,0.00
2013-12-7,74.1,59.5,45.1,69.0,57.3,44.0,96,92,83,30.38,30.08,10,3,16,0.06
2013-12-8,45.0,42.9,41.5,43.0,41.8,41.0,97,96,92,30.39,30.26,13,3,14,0.03
2013-12-9,69.7,52.7,41.5,65.0,51.2,41.0,98,95,83,30.27,30.06,6,1,7,0.00
2013-12-10,73.6,60.6,43.6,69.0,57.9,43.0,99,91,74,30.33,29.91,13,3,22,0.08
2013-12-11,53.7,42.2,32.9,42.0,32.2,22.0,95,72,32,30.48,30.30,6,1,9,0.00
2013-12-12,51.4,40.5,29.6,38.0,29.8,21.0,97,71,31,30.41,30.27,8,2,17,0.00
2013-12-13,53.5,39.9,27.3,40.0,30.7,21.0,95,74,30,30.43,30.28,3,0,7,0.00
2013-12-14,69.1,59.5,44.9,68.0,55.8,40.0,97,87,77,30.28,29.78,11,2,18,0.52
2013-12-15,66.6,55.8,43.1,65.0,51.9,42.0,96,87,70,30.12,29.75,9,2,20,0.04
2013-12-16,59.5,45.1,34.0,45.0,39.3,33.0,98,83,47,30.22,30.12,6,1,9,0.00
2013-12-17,65.4,51.2,37.9,45.0,39.7,36.0,97,68,37,30.21,30.05,7,1,12,0.01
2013-12-18,54.9,45.8,33.0,40.0,33.3,27.0,94,65,35,30.34,30.06,11,2,11,0.00
2013-12-19,62.5,44.9,30.1,45.0,37.7,29.0,98,80,41,30.38,30.27,4,0,8,0.00
2013-12-20,73.4,58.0,44.1,61.0,53.5,43.0,97,86,61,30.27,30.16,6,1,10,0.00
2013-12-21,76.1,64.0,52.2,68.0,61.6,52.0,99,92,76,30.19,30.10,5,1,9,0.00
2013-12-22,81.4,72.2,63.8,72.0,67.9,63.0,98,87,69,30.14,30.07,7,2,17,0.00
2013-12-23,77.6,70.1,60.2,71.0,67.6,59.0,99,92,79,30.12,30.02,11,2,13,0.23
2013-12-24,60.3,49.2,38.6,60.0,44.1,33.0,98,83,62,30.40,30.06,9,3,15,0.11
2013-12-25,47.5,38.1,29.4,32.0,27.1,21.0,77,65,49,30.50,30.34,11,3,11,0.00
2013-12-26,47.2,41.4,35.6,43.0,37.6,29.0,95,86,75,30.34,30.24,6,2,11,0.02
2013-12-27,55.5,43.9,36.5,39.0,35.2,31.0,94,74,43,30.43,30.32,8,1,11,0.00
2013-12-28,61.9,48.3,32.6,54.0,39.6,29.0,94,74,34,30.41,30.09,5,1,8,0.10
2013-12-29,71.8,63.7,50.4,68.0,61.0,49.0,99,91,71,30.07,29.76,11,3,19,1.13
2013-12-30,57.5,49.9,44.8,51.0,48.1,44.0,98,93,75,30.16,29.96,3,0,6,0.01
2013-12-31,55.3,48.9,40.3,48.0,43.6,38.0,96,83,56,30.39,30.13,8,1,11,0.00
2014-1-1,50.7,44.0,38.1,45.0,40.4,36.0,97,88,60,30.41,30.17,4,1,7,0.14
2014-1-2,56.9,50.7,46.0,57.0,50.0,45.0,99,97,86,30.15,29.64,8,1,15,0.72